Time,TemperatureF,DewpointF,PressureIn,WindDirection,WindDirectionDegrees,WindSpeedMPH,WindSpeedGustMPH,Humidity,HourlyPrecipIn,Conditions,Clouds,dailyrainin,SoftwareType,DateUTC
2013-08-03 00:10:00,86.4,70.0,29.85,SE,135,2.0,6.0,58,0.00,,,0.00,weatherlink.com 1.10,2013-08-03 06:10:00,
2013-08-03 00:25:00,86.1,70.0,29.86,ESE,122,2.0,5.0,59,0.00,,,0.00,weatherlink.com 1.10,2013-08-03 06:25:00,
2013-08-03 00:40:00,85.7,70.0,29.86,SE,129,0.0,6.0,60,0.00,,,0.00,weatherlink.com 1.10,2013-08-03 06:40:00,
2013-08-03 00:55:00,85.2,70.0,29.86,SSE,150,0.0,4.0,61,0.00,,,0.00,weatherlink.com 1.10,2013-08-03 06:55:00,
2013-08-03 01:10:00,85.1,71.0,29.86,SE,135,2.0,7.0,62,0.00,,,0.00,weatherlink.com 1.10,2013-08-03 07:10:00,
2013-08-03 01:25:00,85.0,71.0,29.86,ESE,122,2.0,4.0,63,0.00,,,0.00,weatherlink.com 1.10,2013-08-03 07:25:00,
2013-08-03 01:40:00,84.6,71.0,29.87,SE,141,2.0,5.0,64,0.00,,,0.00,weatherlink.com 1.10,2013-08-03 07:40:00,
2013-08-03 01:55:00,84.1,71.0,29.87,SE,129,1.0,3.0,65,0.00,,,0.00,weatherlink.com 1.10,2013-08-03 07:55:00,
2013-08-03 02:10:00,83.7,72.0,29.86,SE,131,0.0,3.0,67,0.00,,,0.00,weatherlink.com 1.10,2013-08-03 08:10:00,
2013-08-03 02:26:00,83.0,71.0,29.87,SE,146,0.0,3.0,68,0.00,,,0.00,weatherlink.com 1.10,2013-08-03 08:26:00,
2013-08-03 02:41:00,82.6,71.0,29.87,SE,143,0.0,1.0,69,0.00,,,0.00,weatherlink.com 1.10,2013-08-03 08:41:00,
2013-08-03 02:56:00,82.3,72.0,29.87,SE,129,0.0,3.0,70,0.00,,,0.00,weatherlink.com 1.10,2013-08-03 08:56:00,
2013-08-03 03:11:00,81.9,72.0,29.87,SSE,150,0.0,3.0,71,0.00,,,0.00,weatherlink.com 1.10,2013-08-03 09:11:00,
2013-08-03 03:26:00,81.5,72.0,29.87,SE,124,0.0,2.0,72,0.00,,,0.00,weatherlink.com 1.10,2013-08-03 09:26:00,
2013-08-03 03:41:00,81.2,71.0,29.87,South,176,0.0,4.0,72,0.00,,,0.00,weatherlink.com 1.10,2013-08-03 09:41:00,
2013-08-03 03:56:00,80.8,71.0,29.86,SSE,153,0.0,2.0,73,0.00,,,0.00,weatherlink.com 1.10,2013-08-03 09:56:00,
2013-08-03 04:11:00,80.4,71.0,29.87,SSE,150,0.0,4.0,74,0.00,,,0.00,weatherlink.com 1.10,2013-08-03 10:11:00,
2013-08-03 04:26:00,80.1,71.0,29.87,SE,133,0.0,2.0,74,0.00,,,0.00,weatherlink.com 1.10,2013-08-03 10:26:00,
2013-08-03 04:41:00,79.7,71.0,29.87,SE,124,0.0,2.0,75,0.00,,,0.00,weatherlink.com 1.10,2013-08-03 10:41:00,
2013-08-03 05:11:00,78.9,70.0,29.88,SSE,148,0.0,1.0,75,0.00,,,0.00,weatherlink.com 1.10,2013-08-03 11:11:00,
2013-08-03 05:26:00,78.4,70.0,29.88,SE,136,0.0,1.0,76,0.00,,,0.00,weatherlink.com 1.10,2013-08-03 11:26:00,
2013-08-03 05:42:00,77.9,70.0,29.89,SSW,204,0.0,1.0,77,0.00,,,0.00,weatherlink.com 1.10,2013-08-03 11:42:00,
2013-08-03 05:57:00,77.8,70.0,29.89,SE,141,0.0,2.0,78,0.00,,,0.00,weatherlink.com 1.10,2013-08-03 11:57:00,
2013-08-03 06:12:00,78.1,71.0,29.90,SE,134,0.0,4.0,78,0.00,,,0.00,weatherlink.com 1.10,2013-08-03 12:12:00,
2013-08-03 06:42:00,80.3,71.0,29.91,SSE,152,0.0,1.0,74,0.00,,,0.00,weatherlink.com 1.10,2013-08-03 12:42:00,
2013-08-03 06:57:00,82.1,72.0,29.91,WSW,247,3.0,4.0,71,0.00,,,0.00,weatherlink.com 1.10,2013-08-03 12:57:00,
2013-08-03 07:12:00,83.2,72.0,29.91,South,183,0.0,5.0,70,0.00,,,0.00,weatherlink.com 1.10,2013-08-03 13:12:00,
2013-08-03 07:27:00,84.1,72.0,29.92,SSW,194,2.0,6.0,68,0.00,,,0.00,weatherlink.com 1.10,2013-08-03 13:27:00,
2013-08-03 07:42:00,85.1,72.0,29.93,SSE,150,1.0,5.0,66,0.00,,,0.00,weatherlink.com 1.10,2013-08-03 13:42:00,
2013-08-03 07:57:00,85.1,73.0,29.92,SSE,154,2.0,6.0,67,0.00,,,0.00,weatherlink.com 1.10,2013-08-03 13:57:00,
2013-08-03 08:12:00,85.3,73.0,29.93,ESE,122,3.0,8.0,67,0.00,,,0.00,weatherlink.com 1.10,2013-08-03 14:12:00,
2013-08-03 08:27:00,85.6,73.0,29.93,South,172,3.0,9.0,66,0.00,,,0.00,weatherlink.com 1.10,2013-08-03 14:27:00,
2013-08-03 08:42:00,87.0,73.0,29.93,SE,139,1.0,7.0,64,0.00,,,0.00,weatherlink.com 1.10,2013-08-03 14:42:00,
2013-08-03 08:57:00,88.2,74.0,29.93,SSE,153,2.0,5.0,62,0.00,,,0.00,weatherlink.com 1.10,2013-08-03 14:57:00,
2013-08-03 09:12:00,89.6,73.0,29.93,South,191,3.0,6.0,59,0.00,,,0.00,weatherlink.com 1.10,2013-08-03 15:12:00,
2013-08-03 09:27:00,91.1,74.0,29.93,ESE,109,1.0,5.0,58,0.00,,,0.00,weatherlink.com 1.10,2013-08-03 15:27:00,
2013-08-03 09:42:00,91.1,73.0,29.94,SSE,153,0.0,8.0,55,0.00,,,0.00,weatherlink.com 1.10,2013-08-03 15:42:00,
2013-08-03 09:57:00,91.8,72.0,29.93,SW,229,3.0,6.0,53,0.00,,,0.00,weatherlink.com 1.10,2013-08-03 15:57:00,
2013-08-03 10:12:00,93.5,73.0,29.93,SE,141,2.0,7.0,52,0.00,,,0.00,weatherlink.com 1.10,2013-08-03 16:12:00,
2013-08-03 10:27:00,93.2,73.0,29.93,SW,235,4.0,6.0,52,0.00,,,0.00,weatherlink.com 1.10,2013-08-03 16:27:00,
2013-08-03 10:42:00,94.1,73.0,29.93,East,101,2.0,9.0,50,0.00,,,0.00,weatherlink.com 1.10,2013-08-03 16:42:00,
2013-08-03 10:57:00,94.7,73.0,29.93,SE,134,2.0,6.0,49,0.00,,,0.00,weatherlink.com 1.10,2013-08-03 16:57:00,
2013-08-03 11:12:00,95.0,72.0,29.93,SE,128,5.0,8.0,47,0.00,,,0.00,weatherlink.com 1.10,2013-08-03 17:12:00,
2013-08-03 11:27:00,95.3,71.0,29.93,SSW,200,4.0,12.0,46,0.01,,,0.01,weatherlink.com 1.10,2013-08-03 17:27:00,
2013-08-03 11:42:00,96.2,73.0,29.92,South,177,1.0,8.0,47,0.01,,,0.01,weatherlink.com 1.10,2013-08-03 17:42:00,
2013-08-03 11:57:00,96.7,71.0,29.92,ESE,118,0.0,10.0,44,0.01,,,0.01,weatherlink.com 1.10,2013-08-03 17:57:00,
2013-08-03 12:12:00,96.7,71.0,29.91,SW,225,5.0,8.0,43,0.01,,,0.01,weatherlink.com 1.10,2013-08-03 18:12:00,
2013-08-03 12:27:00,98.6,72.0,29.91,West,263,3.0,10.0,42,0.00,,,0.01,weatherlink.com 1.10,2013-08-03 18:27:00,
2013-08-03 12:42:00,97.9,70.0,29.90,ESE,123,0.0,8.0,40,0.00,,,0.01,weatherlink.com 1.10,2013-08-03 18:42:00,
2013-08-03 13:32:00,97.8,72.0,29.89,ESE,102,4.0,6.0,43,0.00,,,0.01,weatherlink.com 1.10,2013-08-03 19:32:00,
2013-08-03 13:43:00,98.7,70.0,29.89,SE,124,3.0,5.0,40,0.00,,,0.01,weatherlink.com 1.10,2013-08-03 19:43:00,
2013-08-03 13:58:00,98.3,71.0,29.89,South,186,2.0,7.0,41,0.00,,,0.01,weatherlink.com 1.10,2013-08-03 19:58:00,
2013-08-03 14:12:00,98.2,71.0,29.88,East,81,3.0,6.0,41,0.00,,,0.01,weatherlink.com 1.10,2013-08-03 20:12:00,
2013-08-03 14:27:00,97.8,70.0,29.88,ESE,108,5.0,9.0,40,0.00,,,0.01,weatherlink.com 1.10,2013-08-03 20:27:00,
2013-08-03 14:43:00,97.4,69.0,29.88,East,83,5.0,8.0,39,0.00,,,0.01,weatherlink.com 1.10,2013-08-03 20:43:00,
2013-08-03 14:58:00,98.4,68.0,29.88,WNW,297,0.0,7.0,37,0.00,,,0.01,weatherlink.com 1.10,2013-08-03 20:58:00,
2013-08-03 15:13:00,99.8,68.0,29.88,ESE,108,5.0,11.0,35,0.00,,,0.01,weatherlink.com 1.10,2013-08-03 21:13:00,
2013-08-03 15:27:00,100.1,67.0,29.87,NE,44,2.0,5.0,34,0.00,,,0.01,weatherlink.com 1.10,2013-08-03 21:27:00,
2013-08-03 15:42:00,100.4,67.0,29.87,ENE,63,2.0,7.0,34,0.00,,,0.01,weatherlink.com 1.10,2013-08-03 21:42:00,
2013-08-03 15:57:00,99.8,73.0,29.87,NE,45,8.0,11.0,42,0.00,,,0.01,weatherlink.com 1.10,2013-08-03 21:57:00,
2013-08-03 16:12:00,96.3,73.0,29.87,ENE,68,7.0,9.0,47,0.00,,,0.01,weatherlink.com 1.10,2013-08-03 22:12:00,
2013-08-03 16:27:00,94.9,73.0,29.87,ENE,73,5.0,11.0,50,0.00,,,0.01,weatherlink.com 1.10,2013-08-03 22:27:00,
2013-08-03 16:57:00,95.9,72.0,29.87,East,95,4.0,11.0,46,0.00,,,0.01,weatherlink.com 1.10,2013-08-03 22:57:00,
2013-08-03 17:12:00,96.3,71.0,29.87,NE,48,6.0,9.0,44,0.00,,,0.01,weatherlink.com 1.10,2013-08-03 23:12:00,
2013-08-03 17:27:00,95.8,70.0,29.87,NE,43,2.0,9.0,43,0.00,,,0.01,weatherlink.com 1.10,2013-08-03 23:27:00,
2013-08-03 17:42:00,95.6,69.0,29.86,East,99,4.0,11.0,42,0.00,,,0.01,weatherlink.com 1.10,2013-08-03 23:42:00,
2013-08-03 17:58:00,95.2,69.0,29.86,East,92,5.0,10.0,43,0.00,,,0.01,weatherlink.com 1.10,2013-08-03 23:58:00,
2013-08-03 18:13:00,94.6,70.0,29.86,ENE,78,3.0,9.0,45,0.00,,,0.01,weatherlink.com 1.10,2013-08-04 00:13:00,
2013-08-03 18:28:00,94.1,69.0,29.86,East,96,3.0,11.0,44,0.00,,,0.01,weatherlink.com 1.10,2013-08-04 00:28:00,
2013-08-03 18:43:00,93.5,68.0,29.86,East,84,3.0,7.0,44,0.00,,,0.01,weatherlink.com 1.10,2013-08-04 00:43:00,
2013-08-03 18:58:00,92.7,69.0,29.87,ENE,74,2.0,6.0,46,0.00,,,0.01,weatherlink.com 1.10,2013-08-04 00:58:00,
2013-08-03 19:13:00,91.7,70.0,29.87,ENE,57,2.0,6.0,49,0.00,,,0.01,weatherlink.com 1.10,2013-08-04 01:13:00,
2013-08-03 19:28:00,90.5,70.0,29.87,ESE,112,2.0,5.0,51,0.00,,,0.01,weatherlink.com 1.10,2013-08-04 01:28:00,
2013-08-03 19:43:00,89.7,70.0,29.88,East,98,2.0,5.0,53,0.00,,,0.01,weatherlink.com 1.10,2013-08-04 01:43:00,
2013-08-03 19:58:00,88.8,71.0,29.88,ENE,72,4.0,5.0,55,0.00,,,0.01,weatherlink.com 1.10,2013-08-04 01:58:00,
2013-08-03 20:13:00,88.4,71.0,29.89,ENE,68,6.0,6.0,57,0.00,,,0.01,weatherlink.com 1.10,2013-08-04 02:13:00,
2013-08-03 20:28:00,87.8,71.0,29.89,East,94,4.0,5.0,58,0.00,,,0.01,weatherlink.com 1.10,2013-08-04 02:28:00,
2013-08-03 20:43:00,87.5,71.0,29.90,ESE,116,1.0,5.0,59,0.00,,,0.01,weatherlink.com 1.10,2013-08-04 02:43:00,
2013-08-03 20:58:00,87.1,71.0,29.91,ENE,72,3.0,5.0,60,0.00,,,0.01,weatherlink.com 1.10,2013-08-04 02:58:00,
2013-08-03 21:13:00,86.7,71.0,29.92,East,99,3.0,7.0,60,0.00,,,0.01,weatherlink.com 1.10,2013-08-04 03:13:00,
2013-08-03 21:28:00,86.2,71.0,29.92,ESE,115,1.0,5.0,61,0.00,,,0.01,weatherlink.com 1.10,2013-08-04 03:28:00,
2013-08-03 21:43:00,85.5,71.0,29.93,East,88,1.0,4.0,63,0.00,,,0.01,weatherlink.com 1.10,2013-08-04 03:43:00,
2013-08-03 21:58:00,84.8,71.0,29.94,ENE,78,1.0,2.0,64,0.00,,,0.01,weatherlink.com 1.10,2013-08-04 03:58:00,
2013-08-03 22:13:00,84.1,71.0,29.93,East,90,0.0,2.0,65,0.00,,,0.01,weatherlink.com 1.10,2013-08-04 04:13:00,
2013-08-03 22:28:00,83.4,71.0,29.94,East,82,0.0,1.0,67,0.00,,,0.01,weatherlink.com 1.10,2013-08-04 04:28:00,
2013-08-03 22:43:00,82.6,71.0,29.94,East,90,0.0,1.0,68,0.00,,,0.01,weatherlink.com 1.10,2013-08-04 04:43:00,
2013-08-03 22:58:00,82.0,71.0,29.94,East,99,0.0,2.0,70,0.00,,,0.01,weatherlink.com 1.10,2013-08-04 04:58:00,
2013-08-03 23:13:00,81.7,71.0,29.94,East,86,0.0,1.0,70,0.00,,,0.00,weatherlink.com 1.10,2013-08-04 05:13:00,
2013-08-03 23:28:00,81.2,71.0,29.94,ESE,102,1.0,2.0,71,0.00,,,0.00,weatherlink.com 1.10,2013-08-04 05:28:00,
2013-08-03 23:43:00,81.0,71.0,29.94,East,88,0.0,1.0,71,0.00,,,0.00,weatherlink.com 1.10,2013-08-04 05:43:00,
2013-08-03 23:58:00,81.0,71.0,29.94,East,99,2.0,2.0,71,0.00,,,0.00,weatherlink.com 1.10,2013-08-04 05:58:00,